Hauptseite
METAR-TAF:

METAR-TAF

Flughäfen :

San Juan, Puerto Rico, Vereinigte Staaten

Breite: 18-27-24N, Länge: 066-05-54W, Höhe: 3 m

Beobachtung

Neuester Wetterbericht von vor 14 Minuten, um 10:55 UTC
Windstille
Temperatur 26°C
Luftfeuchtigkeit 84%
Luftdruck 1014 hPa
Sichtweite: 16.1 km
Aufgelockert bewölkt in der Höhe von 3000 ft

METAR: TJIG 231055Z 00000KT 10SM SCT030 26/23 A2993

Zeit: 07:09 (11:09 UTC)


TAF: fehlend

Wetterbeobachtungen und Prognosen von mehr als 4000 Flughäfen (METAR und TAF Bericht).

Die verfügbaren Stationen werden durch gelbe und rote Markierungen auf der Karte dargestellt.

Führen Sie die Maus auf sie, um den Namen der Station zu sehen.

Darauf klicken, um die Beobachtung von Wetterbeobachtungen und Prognosen zu sehen.

Um die Karte zu ändern : klicken Sie auf den grünen Tasten mit einem schwarzen Kreuz Zum Vergrößern, auf den grünen Button mit einem Gedankenstrich zu verkleinern, oder auf die grünen Pfeile für benachbarte Karten.


METAR-TAF: